Вернуться в каталог

SL-16 DEB

АктивенLEO
NORAD 23408·DEBRIS·🇷🇺 Russia

Запущен Nov 24, 1994 с Baikonur Cosmodrome

Loading…

Ближайшие Пролёты (ближайшие 24 часа)

TLE

СвежийSource: Space-Track

Эпоха: Sep 14, 2026, 17:51 UTC

1 23408U 94077E   26257.74424390  .00000037  00000-0  76125-4 0  9994
2 23408  70.9827 262.6147 0215492 265.2076 271.7203 13.71357225590991

Отслеживайте SL-16 DEB в реальном времени с AllMySat

Download on the App Store